Johnstown, PA

4:49 PM EST on January 17, 2017 (GMT -0500)
Johnstown-Cambria County

Weather History for KJST - March, 2013

Change the Weather History Date:

Thursday, March 21, 2013

  Actual Average Record
Temperature  
Mean Temperature 16 °F 37 °F  
Max Temperature 21 °F 45 °F 80 °F (1938)
Min Temperature 12 °F 29 °F 9 °F (1914)
Degree Days  
Heating Degree Days 50 28  
Month to date heating degree days 657  
Since 1 July heating degree days 5536  
Cooling Degree Days 0 0  
Month to date cooling degree days 0  
Year to date cooling degree days 0  
Moisture  
Dew Point 11 °F    
Average Humidity 77    
Maximum Humidity 92    
Minimum Humidity 57    
Precipitation  
Precipitation 0.00 in 0.12 in 2.83 in (1912)
Month to date precipitation 2.00  
Year to date precipitation 7.23  
Sea Level Pressure  
Sea Level Pressure 29.77 in    
Wind  
Wind Speed 11 mph (West)    
Max Wind Speed 22 mph    
Max Gust Speed 28 mph    
Visibility 5 miles    
Events Fog , Snow    
T = Trace of Precipitation, MM = Missing Value Source: NWS Daily Summary

Daily Weather History Graph

Daily Weather History Graph

Search for Another Location

Airport or City:

Trip Planner

Search our weather history database for the weather conditions in past years. The results will help you decide how hot, cold, wet, or windy it might be!

Date:

Astronomy

Mar. 21, 2013 Rise Set
Actual Time 7:16 AM EDT 7:28 PM EDT
Civil Twilight 6:49 AM EDT 7:55 PM EDT
Nautical Twilight 6:17 AM EDT 8:27 PM EDT
Astronomical Twilight 5:45 AM EDT 9:00 PM EDT
Moon 1:56 PM EDT (3/21) 3:37 AM EDT (3/21)
Length of Visible Light 13h 06m
Length of Day
12h 12m
Waxing Gibbous, 68% of the Moon is Illuminated
Mar 21
Waxing Gibbous
Mar 27
Full
Apr 3
Last Quarter
Apr 10
New
Apr 18
First Quarter

Hourly Weather History & Observations

Time (EDT) Temp. Windchill Dew Point Humidity Pressure Visibility Wind Dir Wind Speed Gust Speed Precip Events Conditions
12:54 AM 19.9 °F 8.6 °F 10.9 °F 68% 29.85 in 10.0 mi WNW 10.4 mph - N/A   Overcast
2:07 AM 19.4 °F 7.9 °F 10.4 °F 68% 29.74 in 10.0 mi WNW 10.4 mph - N/A   Overcast
2:54 AM 18.0 °F 7.7 °F 10.9 °F 74% 29.81 in 10.0 mi West 8.1 mph - N/A   Mostly Cloudy
3:54 AM 17.1 °F 8.7 °F 14.0 °F 88% 29.80 in 6.0 mi WNW 5.8 mph - 0.00 in   Overcast
4:02 AM 17.6 °F 10.7 °F 14.0 °F 86% 29.71 in 6.0 mi West 4.6 mph - N/A   Overcast
4:54 AM 18.0 °F 6.1 °F 12.9 °F 81% 29.78 in 7.0 mi West 10.4 mph - 0.00 in Snow Light Snow
5:23 AM 17.6 °F 7.3 °F 12.2 °F 79% 29.70 in 2.0 mi West 8.1 mph - 0.00 in Snow Light Snow
5:28 AM 17.6 °F 7.3 °F 12.2 °F 79% 29.70 in 1.5 mi WNW 8.1 mph - 0.00 in Snow Light Snow
5:42 AM 17.6 °F 6.4 °F 14.0 °F 86% 29.70 in 1.2 mi West 9.2 mph - 0.00 in Snow Light Snow
5:54 AM 17.1 °F 7.6 °F 14.0 °F 88% 29.79 in 1.5 mi West 6.9 mph - 0.00 in Snow Light Snow
6:04 AM 17.6 °F 7.3 °F 14.0 °F 86% 29.69 in 2.0 mi WNW 8.1 mph - 0.00 in Snow Light Snow
6:11 AM 17.6 °F 7.3 °F 14.0 °F 86% 29.69 in 1.8 mi West 8.1 mph - 0.00 in Snow Light Snow
6:23 AM 17.6 °F 0.5 °F 14.0 °F 86% 29.70 in 0.5 mi West 21.9 mph 27.6 mph 0.00 in Fog , Snow Snow
6:42 AM 12.2 °F -3.7 °F 10.4 °F 92% 29.70 in 1.0 mi NW 15.0 mph 25.3 mph 0.00 in Snow Light Snow
6:51 AM 12.2 °F -4.8 °F 8.6 °F 85% 29.71 in 2.0 mi NW 17.3 mph - 0.00 in Snow Light Snow
6:54 AM 12.9 °F -3.4 °F 10.0 °F 88% 29.81 in 1.8 mi NW 16.1 mph - 0.00 in Snow Light Snow
7:28 AM 12.2 °F -1.0 °F 10.4 °F 92% 29.71 in 1.8 mi WNW 10.4 mph - 0.00 in Snow Light Snow
7:33 AM 12.2 °F 0.7 °F 10.4 °F 92% 29.71 in 3.0 mi WNW 8.1 mph - 0.00 in Snow Light Snow
7:41 AM 12.2 °F -1.0 °F 8.6 °F 85% 29.71 in 6.0 mi West 10.4 mph - 0.00 in Snow Light Snow
7:54 AM 12.9 °F -0.2 °F 6.1 °F 74% 29.81 in 10.0 mi West 10.4 mph - 0.00 in   Overcast
8:54 AM 14.0 °F 2.0 °F 6.1 °F 71% 29.81 in 10.0 mi WNW 9.2 mph - N/A   Overcast
9:54 AM 16.0 °F 1.7 °F 5.0 °F 62% 29.81 in 10.0 mi WNW 13.8 mph - N/A   Mostly Cloudy
10:20 AM 15.8 °F 3.4 °F 6.8 °F 68% 29.71 in 10.0 mi NW 10.4 mph - N/A   Overcast
10:44 AM 17.6 °F 5.0 °F 5.0 °F 58% 29.71 in 10.0 mi West 11.5 mph 20.7 mph N/A   Overcast
10:54 AM 16.0 °F 1.7 °F 5.0 °F 62% 29.81 in 9.0 mi West 13.8 mph - N/A   Overcast
11:54 AM 17.1 °F 3.0 °F 5.0 °F 59% 29.81 in 10.0 mi West 13.8 mph 21.9 mph N/A   Overcast
12:54 PM 18.0 °F 3.1 °F 6.1 °F 60% 29.81 in 10.0 mi West 16.1 mph 21.9 mph 0.00 in   Overcast
1:54 PM 18.0 °F 3.6 °F 5.0 °F 57% 29.81 in 10.0 mi West 15.0 mph 21.9 mph N/A   Overcast
2:54 PM 19.0 °F 4.0 °F 6.1 °F 57% 29.80 in 10.0 mi NW 17.3 mph 23.0 mph 0.00 in   Overcast
3:54 PM 19.0 °F 4.0 °F 6.1 °F 57% 29.81 in 10.0 mi West 17.3 mph 25.3 mph N/A   Overcast
4:54 PM 19.0 °F 5.0 °F 7.0 °F 59% 29.81 in 10.0 mi WNW 15.0 mph 24.2 mph 0.00 in   Overcast
5:54 PM 19.9 °F 5.7 °F 8.1 °F 60% 29.82 in 9.0 mi WNW 16.1 mph 26.5 mph 0.00 in   Overcast
6:54 PM 19.9 °F 5.2 °F 8.1 °F 60% 29.83 in 10.0 mi West 17.3 mph 23.0 mph N/A   Overcast
7:54 PM 19.9 °F 7.3 °F 9.0 °F 62% 29.86 in 10.0 mi West 12.7 mph 18.4 mph N/A   Overcast
8:49 PM 19.4 °F 5.0 °F 12.2 °F 74% 29.75 in 3.0 mi West 16.1 mph 23.0 mph 0.00 in Snow Light Snow
8:54 PM 19.0 °F 6.8 °F 12.9 °F 77% 29.86 in 3.0 mi West 11.5 mph 23.0 mph 0.00 in Snow Light Snow
9:43 PM 19.4 °F 7.9 °F 14.0 °F 80% 29.75 in 2.0 mi West 10.4 mph 19.6 mph 0.00 in Snow Light Snow
9:50 PM 19.4 °F 6.6 °F 15.8 °F 86% 29.75 in 1.8 mi West 12.7 mph - 0.00 in Snow Light Snow
9:54 PM 19.0 °F 6.1 °F 15.1 °F 85% 29.86 in 1.8 mi West 12.7 mph - 0.00 in Snow Light Snow
10:23 PM 19.4 °F 7.2 °F 15.8 °F 86% 29.75 in 2.5 mi WSW 11.5 mph - 0.00 in Snow Light Snow
10:33 PM 19.4 °F 6.6 °F 15.8 °F 86% 29.75 in 1.8 mi West 12.7 mph - 0.00 in Snow Light Snow
10:54 PM 19.0 °F 6.1 °F 16.0 °F 88% 29.87 in 2.5 mi West 12.7 mph - 0.00 in Snow Light Snow
11:01 PM 19.4 °F 5.5 °F 15.8 °F 86% 29.76 in 2.0 mi West 15.0 mph - 0.00 in Snow Light Snow
11:12 PM 19.4 °F 6.6 °F 15.8 °F 86% 29.76 in 2.0 mi West 12.7 mph - 0.00 in Snow Light Snow
11:20 PM 19.4 °F 6.6 °F 15.8 °F 86% 29.76 in 1.2 mi West 12.7 mph - 0.00 in Snow Light Snow
11:52 PM 19.4 °F 6.0 °F 15.8 °F 86% 29.75 in 1.5 mi West 13.8 mph 20.7 mph 0.00 in Snow Light Snow
11:54 PM 19.0 °F 3.6 °F 16.0 °F 88% 29.87 in 1.5 mi West 18.4 mph 21.9 mph 0.00 in Snow Light Snow